Powrót do katalogu

THORAD DELTA 1 DEB

AktywnySSO
NORAD 8303·DEBRIS·🇺🇸 United States

Wystrzelony Nov 15, 1974 z Vandenberg Space Force Base

Loading…

Następne Przeloty (najbliższe 24 godziny)

TLE

ŚwieżeSource: Space-Track

Epoka: Sep 13, 2026, 11:43 UTC

1 08303U 74089BL  26256.48826847  .00000133  00000-0  10989-2 0  9996
2 08303 101.2787  87.7283 0032405 311.0599  77.6528 12.53572782363873

Śledź THORAD DELTA 1 DEB w czasie rzeczywistym z AllMySat

Download on the App Store